COSMOS 1867 COOLANT

Satellite information

Favourite Embed

Satellite Type and Status

DEBRISIN ORBIT

Key statistics

Satellite COSMOS 1867 COOLANT at a glance.

Uptime

13877

Days in orbit

Revolutions

≈ 14.3

Per day

Orbit

LEO

Low Earth Orbit

Inclination

65.0

Latest

Satellite identification and parameters

Extended collection of information and parameters for COSMOS 1867 COOLANT.

Object identification

Identified? True

Debris? False

Object name: COSMOS 1867 COOLANT

International designator: 1987-060AC

Object number (NORAD): 39665

Object ID (CCSDS): 39665

Country: COMMONWEALTH OF INDEPENDENT STATES (CIS)

Current information (Y/N): Y

RCS size: SMALL

Orbital parameters

Period: 100.455 minutes

Inclination: 65.0057 deg

SMA: 7158.278 km

Apoapsis: 791.448 km

Periapsis: 768.838 km

RAAN: 261.3428 deg

Eccentricy: 0.0015793

Argument of periapsis: 256.5902 deg

Mean anomaly: 103.3423 deg

Mean motion: 14.33474375 rev/day

Mean motion (dot): 0.00000121 rev/day2

B* drag term: 0.000079877 1/REarth

Two-line elements (TLE)

Creation date: July 6, 2025, 10:26 p.m.

Reference frame: TEME

Reference center: EARTH

Epoch: July 6, 2025, 7:29 p.m. UTC

TLE line 0: 0 COSMOS 1867 COOLANT

TLE line 1: 1 39665U 87060AC 25187.81187862 .00000121 00000-0 79877-4 0 9990

TLE line 2: 2 39665 65.0057 261.3428 0015793 256.5902 103.3423 14.33474375588439

Live tracking on map

Real-time ground track for satellite COSMOS 1867 COOLANT.

In-orbit conjunctions

A list of the most updated potential collisions computed for object COSMOS 1867 COOLANT.

Target Orbit TCA Probability of collision Miss distance Type
DMSP 5D-2 F12 DEB SSO 2025-05-15 00:57:22 0.0005625818 46.0 (m) DEBRIS
NOAA 16 DEB SSO 2025-05-01 00:46:47 0.0001204563 106.0 (m) DEBRIS
IRIDIUM 33 DEB LEO 2024-08-08 10:39:16 0.0003645365 143.0 (m) DEBRIS

Associated space launch

Nuclear-powered magnetospheric research satellite

COSMOS 1867 COOLANT was lifted into orbit during the mission ‘Tsiklon-2 | Plasma-A 2’, on board a Tsiklon-2 space rocket.

The launch took place on July 10, 1987, 3:35 p.m. from 90.

For more information about the launch, click the button.

Launch to space Tsiklon-2 | Plasma-A 2
Tsiklon-2 | Plasma-A 2

Agency: N/A

Status: Launch Successful

Launch date: July 10, 1987, 3:35 p.m. UTC

Rocket: Tsiklon-2

Launch pad: 90

Location: Baikonur Cosmodrome, Republic of Kazakhstan

...

Latest news about this satellite

There are no fresh news available about this satellite. Check back as we update our databases every day.


Newsletter sign-up

Weekly statistics, charts and insights to help you stay on top of the space industry.